Date String (YYYY-MM-DD hh:mm:ss) UTC,Instrument flags,absolute air pressure of the measurement (hPa),sample flow rate (lpm),inlet stack bypass flow (lpm),air temperature of the measurement (°C),ambient temperature measured by the external sensor (°C),aerosol sample conditioner tube jacket temperature (°C),OPC LED temperature (°C),internal box temperature (°C),relative humidity of the measurement (%),span deviation,mass concentration of particles derived from Lorenz-Mie calculation of OPC scattering (μg/m³),mass concentration of particles derived from Lorenz-Mie calculation of OPC scattering (μg/m³),mass concentration of particles derived from Lorenz-Mie calculation of OPC scattering (μg/m³)
DateTimeUTC,F1_M11,P_M11,Q1_M11,Q2_M11,T1_M11,T2_M11,T3_M11,T4_M11,T5_M11,U1_M11,ZSPAN_M11,X0_M11,X2_M11,X1_M11
2023-09-07 06:00:00,SystemResetWarning,0831.3,5.01,000.00,028.0,025.7,000.0,036.5,029.5,20.0,0000.6,0011.94,0005.53,0004.59
2023-09-07 06:01:00,SystemResetWarning,0831.3,5.01,000.00,028.1,026.0,000.0,036.5,029.6,20.0,0000.9,0012.40,0005.53,0004.59
2023-09-07 06:02:00,SystemResetWarning,0831.3,5.00,000.00,028.1,026.3,000.0,036.5,029.6,20.1,0001.1,0011.73,0005.51,0004.60
2023-09-07 06:03:00,SystemResetWarning,0831.3,5.00,000.00,028.1,026.5,000.0,036.6,029.7,20.0,0001.2,0012.51,0005.51,0004.61
2023-09-07 06:04:00,SystemResetWarning,0831.3,5.00,000.00,028.1,026.6,000.0,036.6,029.7,19.9,0001.6,0013.62,0005.50,0004.61
2023-09-07 06:05:00,SystemResetWarning,0831.3,5.00,000.00,028.2,026.8,000.0,036.6,029.8,19.9,0001.6,0013.87,0005.51,0004.61
2023-09-07 06:06:00,SystemResetWarning,0831.3,5.00,000.00,028.2,026.9,000.0,036.6,029.8,19.8,0002.2,0014.26,0005.50,0004.59
2023-09-07 06:07:00,SystemResetWarning,0831.2,5.00,000.00,028.2,027.0,000.0,036.6,029.8,19.7,0002.6,0014.06,0005.47,0004.59
2023-09-07 06:08:00,SystemResetWarning,0831.2,5.00,000.00,028.2,027.1,000.0,036.6,029.9,19.6,0002.2,0014.05,0005.46,0004.59
2023-09-07 06:09:00,SystemResetWarning,0831.3,5.00,000.00,028.3,027.1,000.0,036.6,029.9,19.6,0002.1,0014.04,0005.45,0004.58
2023-09-07 06:10:00,SystemResetWarning,0831.2,5.00,000.00,028.3,027.2,000.0,036.6,030.0,19.6,0002.1,0014.69,0005.45,0004.59
2023-09-07 06:11:00,SystemResetWarning,0831.2,4.99,000.00,028.3,027.3,000.0,036.7,030.0,19.5,0002.2,0015.16,0005.47,0004.58
2023-09-07 06:12:00,SystemResetWarning,0831.3,4.99,000.00,028.4,027.3,000.0,036.7,030.0,19.5,0002.2,0014.69,0005.44,0004.58
2023-09-07 06:13:00,SystemResetWarning,0831.2,5.00,000.00,028.4,027.4,000.0,036.7,030.0,19.4,0002.1,0014.68,0005.51,0004.59
2023-09-07 06:14:00,SystemResetWarning,0831.2,5.00,000.00,028.4,027.4,000.0,036.7,030.1,19.3,0002.0,0014.68,0005.49,0004.58
2023-09-07 06:15:00,SystemResetWarning,0831.2,4.99,000.00,028.5,027.2,000.0,036.7,030.1,19.3,0001.8,0014.26,0005.50,0004.56
2023-09-07 06:16:00,SystemResetWarning,0831.1,4.99,000.00,028.4,025.5,000.0,036.7,029.7,19.3,0001.9,0013.88,0005.48,0004.55
2023-09-07 06:17:00,SystemResetWarning,0831.1,5.01,000.00,028.3,024.6,000.0,036.6,029.5,19.5,0001.7,0013.39,0005.47,0004.56
2023-09-07 06:18:00,SystemResetWarning,0831.1,5.01,000.00,028.2,024.6,000.0,036.6,029.3,19.7,0001.6,0013.22,0005.47,0004.56
2023-09-07 06:19:00,SystemResetWarning,0831.1,5.01,000.00,028.1,024.9,000.0,036.6,029.3,19.8,0002.0,0013.16,0005.49,0004.56
2023-09-07 06:20:00,SystemResetWarning,0831.1,4.99,000.00,028.1,025.3,000.0,036.6,029.4,19.7,0002.2,0013.22,0005.53,0004.57
2023-09-07 06:21:00,SystemResetWarning,0831.1,5.01,000.00,028.1,025.6,000.0,036.6,029.5,19.7,0001.9,0012.79,0005.51,0004.57
2023-09-07 06:22:00,SystemResetWarning,0831.1,5.00,000.00,028.1,025.9,000.0,036.6,029.5,19.8,0001.8,0011.85,0005.50,0004.57
2023-09-07 06:23:00,SystemResetWarning,0831.1,4.99,000.00,028.1,026.2,000.0,036.6,029.6,19.8,0001.5,0011.94,0005.53,0004.58
2023-09-07 06:24:00,SystemResetWarning,0831.1,5.00,000.00,028.1,026.4,000.0,036.6,029.7,19.8,0001.1,0011.77,0005.52,0004.58
2023-09-07 06:25:00,SystemResetWarning,0831.1,5.00,000.00,028.1,026.6,000.0,036.6,029.7,19.8,0001.2,0011.18,0005.47,0004.59
2023-09-07 06:26:00,SystemResetWarning,0831.1,5.00,000.00,028.2,026.7,000.0,036.6,029.8,19.9,0001.6,0011.00,0005.49,0004.60
2023-09-07 06:27:00,SystemResetWarning,0831.2,4.99,000.00,028.2,026.9,000.0,036.6,029.8,19.9,0001.3,0011.47,0005.47,0004.60
2023-09-07 06:28:00,SystemResetWarning,0831.1,4.99,000.00,028.2,027.0,000.0,036.6,029.8,19.7,0001.3,0012.23,0005.50,0004.59
2023-09-07 06:29:00,SystemResetWarning,0831.1,5.00,000.00,028.3,027.1,000.0,036.6,029.9,19.5,0001.2,0013.40,0005.49,0004.58
2023-09-07 06:30:00,SystemResetWarning,0831.1,5.01,000.00,028.3,027.1,000.0,036.6,029.9,19.4,0001.2,0013.60,0005.50,0004.58
2023-09-07 06:31:00,SystemResetWarning,0831.2,5.01,000.00,028.3,027.2,000.0,036.7,030.0,19.3,0001.2,0013.82,0005.50,0004.58
2023-09-07 06:32:00,SystemResetWarning,0831.2,5.00,000.00,028.3,027.3,000.0,036.7,030.0,19.2,0001.2,0014.19,0005.51,0004.60
2023-09-07 06:33:00,SystemResetWarning,0831.1,5.00,000.00,028.4,027.3,000.0,036.7,030.0,19.2,0001.1,0014.25,0005.54,0004.60
2023-09-07 06:34:00,SystemResetWarning,0831.2,5.00,000.00,028.4,027.4,000.0,036.7,030.1,19.4,0000.8,0014.36,0005.56,0004.62
2023-09-07 06:35:00,SystemResetWarning,0831.1,4.99,000.00,028.4,027.4,000.0,036.7,030.1,19.3,0001.0,0014.22,0005.56,0004.62
2023-09-07 06:36:00,SystemResetWarning,0831.1,5.00,000.00,028.5,027.4,000.0,036.8,030.1,19.2,0001.1,0014.26,0005.63,0004.63
2023-09-07 06:37:00,SystemResetWarning,0831.1,4.99,000.00,028.4,026.1,000.0,036.7,029.8,19.3,0000.5,0013.85,0005.63,0004.64
2023-09-07 06:38:00,SystemResetWarning,0831.1,5.00,000.00,028.3,024.7,000.0,036.7,029.4,19.5,0000.5,0013.34,0005.67,0004.66
2023-09-07 06:39:00,SystemResetWarning,0831.1,5.01,000.00,028.2,024.6,000.0,036.6,029.4,19.7,0000.5,0013.03,0005.64,0004.67
2023-09-07 06:40:00,SystemResetWarning,0831.1,5.02,000.00,028.1,024.8,000.0,036.6,029.3,19.8,0000.5,0011.97,0005.62,0004.68
2023-09-07 06:41:00,SystemResetWarning,0831.1,5.00,000.00,028.1,025.1,000.0,036.6,029.4,19.8,0000.2,0011.59,0005.60,0004.69
2023-09-07 06:42:00,SystemResetWarning,0831.1,5.00,000.00,028.1,025.5,000.0,036.6,029.5,19.5,0000.2,0011.35,0005.57,0004.70
2023-09-07 06:43:00,SystemResetWarning,0831.1,4.99,000.00,028.1,025.8,000.0,036.6,029.5,19.5,0000.4,0010.91,0005.57,0004.70
2023-09-07 06:44:00,SystemResetWarning,0831.1,4.99,000.00,028.1,026.1,000.0,036.6,029.6,19.4,0000.5,0010.87,0005.55,0004.71
2023-09-07 06:45:00,SystemResetWarning,0831.1,4.99,000.00,028.1,026.3,000.0,036.6,029.6,19.8,0000.9,0010.97,0005.51,0004.68
2023-09-07 06:46:00,SystemResetWarning,0831.1,5.01,000.00,028.1,026.5,000.0,036.6,029.7,20.0,0001.2,0011.50,0005.48,0004.68
2023-09-07 06:47:00,SystemResetWarning,0831.1,5.01,000.00,028.1,026.7,000.0,036.6,029.8,20.2,0001.1,0011.81,0005.45,0004.67
2023-09-07 06:48:00,SystemResetWarning,0831.1,5.00,000.00,028.2,026.8,000.0,036.6,029.8,19.6,0001.1,0012.44,0005.45,0004.67
2023-09-07 06:49:00,SystemResetWarning,0831.1,4.99,000.00,028.2,026.9,000.0,036.6,029.8,19.8,0001.4,0012.01,0005.37,0004.65
2023-09-07 06:50:00,SystemResetWarning,0831.1,5.00,000.00,028.2,027.0,000.0,036.6,029.9,19.4,0001.8,0011.63,0005.36,0004.64
2023-09-07 06:51:00,SystemResetWarning,0831.1,5.00,000.00,028.3,027.1,000.0,036.6,029.9,19.0,0002.0,0011.29,0005.38,0004.65
2023-09-07 06:52:00,SystemResetWarning,0831.1,5.00,000.00,028.3,027.2,000.0,036.7,029.9,18.7,0002.0,0011.31,0005.38,0004.66
2023-09-07 06:53:00,SystemResetWarning,0831.1,5.00,000.00,028.3,027.2,000.0,036.7,030.0,18.8,0002.0,0011.40,0005.41,0004.67
2023-09-07 06:54:00,SystemResetWarning,0831.1,4.99,000.00,028.4,027.3,000.0,036.7,030.0,18.8,0001.7,0011.48,0005.42,0004.67
2023-09-07 06:55:00,SystemResetWarning,0831.1,4.99,000.00,028.4,027.3,000.0,036.7,030.0,18.7,0001.7,0011.92,0005.45,0004.68
2023-09-07 06:56:00,SystemResetWarning,0831.0,5.00,000.00,028.4,027.4,000.0,036.7,030.1,18.8,0001.3,0012.36,0005.50,0004.72
2023-09-07 06:57:00,SystemResetWarning,0831.1,5.01,000.00,028.5,027.4,000.0,036.8,030.1,18.5,0001.2,0012.44,0005.51,0004.73
2023-09-07 06:58:00,SystemResetWarning,0831.1,5.00,000.00,028.5,027.3,000.0,036.8,030.1,18.5,0001.3,0012.40,0005.53,0004.73
2023-09-07 06:59:00,SystemResetWarning,0831.1,4.99,000.00,028.4,025.8,000.0,036.7,029.8,18.6,0001.5,0012.06,0005.51,0004.73
